Content
SEND FEEDBACK

Daily
Averages
Monthly
Summary
United States of America

ANN ARBOR, MICHIGAN


Home > North America > United States > Michigan
Elevation: 759 feet     Latitude: 42 17N     Longitude: 083 43W

WEATHER
 
SELECT A DAY
Number of Records: 202,962;   Date Range: 1/1/95 - 7/7/14
 
SHARE

PRINT THIS DATA

[ ← Previous Day ]
WEATHER ALMANAC - NOVEMBER 16, 2013
[ Next Day → ]
[ °C ]   °F
Weather ElementAverageHighLow
Temperature45.6 °F57.2 °F (3:21 pm)28.4 °F (6:50 am)
Dewpoint40.5 °F52 °F (10:53 pm)26.6 °F (6:50 am)
Humidity82.8 %93 % (6:50 am)67 % (3:21 pm)
Barometer30.00 in30.11 in (6:53 am)29.81 in (11:53 pm)
Wind Speed6.9 mph13.8 mph (11:53 pm)
Wind Gust23 mph (9:53 pm)
Weather ElementAverage
Visibility8.8 mi
Wind DirectionSE (136.6 °)

Weather ElementTotal
Precipitation---
Heating Degree Days22.2 (Base 65)
Averaged from 32 records on November 16, 2013
WEATHER CONDITIONS BREAKOUT
WIND DIRECTION BREAKOUT
WEATHER BY HOUR - NOVEMBER 16, 2013
[ °C ]   °F
Local TimeTemperatureDewpointHumidityBarometerVisibilityWind DirectionWind SpeedGust SpeedPrecipitationEventsConditions
1:53 AM36.0 °F28.9 °F76 %30.07 in10.0 miSouth (190°)3.5 mphClear
2:53 AM33.1 °F28.0 °F82 %30.09 in10.0 miSouth (180°)3.5 mphClear
3:53 AM35.1 °F30.0 °F82 %30.07 in10.0 miSouth (190°)4.6 mphClear
4:53 AM30.0 °F27.0 °F88 %30.10 in9.0 miCalmClear
5:53 AM30.0 °F27.0 °F88 %30.10 in8.0 miCalmClear
6:50 AM28.4 °F26.6 °F93 %30.08 in7.0 miCalmMostly Cloudy
6:53 AM30.0 °F28.0 °F92 %30.11 in8.0 miCalmMostly Cloudy
7:53 AM36.0 °F34.0 °F93 %30.11 in6.0 miCalmOvercast
8:23 AM39.2 °F35.6 °F87 %30.09 in5.0 miCalmOvercast
8:45 AM39.2 °F35.6 °F87 %30.08 in5.0 miESE (120°)3.5 mphOvercast
8:53 AM39.9 °F36.0 °F86 %30.10 in6.0 miSE (140°)3.5 mphOvercast
9:09 AM41.0 °F37.4 °F87 %30.09 in7.0 miCalmOvercast
9:48 AM42.8 °F39.2 °F87 %30.07 in8.0 miSE (140°)5.8 mphOvercast
9:53 AM43.0 °F39.0 °F86 %30.08 in8.0 miSSE (150°)5.8 mphOvercast
10:53 AM46.0 °F41.0 °F83 %30.08 in10.0 miSouth (190°)6.9 mphOvercast
11:33 AM48.2 °F42.8 °F82 %30.05 in8.0 miSouth (190°)6.9 mphOvercast
11:53 AM48.0 °F43.0 °F83 %30.05 in9.0 miSouth (180°)9.2 mphOvercast
12:07 PM48.2 °F44.6 °F87 %30.01 in9.0 miSSE (150°)9.2 mphOvercast
12:53 PM51.1 °F45.0 °F80 %30.00 in10.0 miSouth (170°)10.4 mphOvercast
1:53 PM54.0 °F46.0 °F75 %29.97 in10.0 miSouth (180°)8.1 mph18.4 mphClear
2:53 PM55.9 °F46.9 °F72 %29.95 in10.0 miSouth (190°)9.2 mph17.3 mphOvercast
3:21 PM57.2 °F46.4 °F67 %29.93 in10.0 miSouth (180°)11.5 mphOvercast
3:53 PM57.0 °F48.0 °F72 %29.94 in10.0 miSouth (180°)12.7 mphPartly Cloudy
4:53 PM55.9 °F46.9 °F72 %29.93 in10.0 miSouth (180°)11.5 mphPartly Cloudy
5:53 PM54.0 °F46.9 °F77 %29.93 in10.0 miSouth (180°)12.7 mph18.4 mphMostly Cloudy
6:22 PM53.6 °F46.4 °F77 %29.91 in10.0 miSouth (170°)10.4 mphMostly Cloudy
6:53 PM51.1 °F48.0 °F89 %29.93 in10.0 miSouth (180°)11.5 mphOvercast
7:53 PM54.0 °F48.9 °F83 %29.89 in10.0 miSouth (190°)10.4 mph18.4 mphOvercast
8:53 PM55.0 °F50.0 °F83 %29.88 in10.0 miSouth (190°)11.5 mphOvercast
9:53 PM55.9 °F50.0 °F80 %29.83 in10.0 miSouth (180°)10.4 mph23.0 mphOvercast
10:53 PM55.9 °F52.0 °F87 %29.82 in10.0 miSouth (190°)12.7 mph0.00 inOvercast
11:53 PM55.9 °F52.0 °F87 %29.81 in10.0 miSouth (190°)13.8 mph23.0 mph0.00 inOvercast
Hourly data recorded from KARB, located miles away from Ann Arbor, Michigan







STORIES FROM OUR PARTNERS